GFSMW_prec_pwat_126.txt.gz
Precipitable_Water
0.41 0.37 0.40 0.44 0.51 0.56 0.58 0.60 0.56 0.54 0.54 0.60 0.79 0.86 0.90 0.87 0.96 1.01 1.18 1.33 1.34 1.35 1.38 1.37 1.37 1.33 1.15 1.18 1.37 1.40 1.40 1.34 1.45 1.36 1.14 1.23 1.20 1.01 1.00 1.06 1.03 1.00 0.95
0.39 0.35 0.38 0.49 0.59 0.62 0.67 0.66 0.69 0.70 0.65 0.59 0.54 0.72 0.83 1.01 0.98 1.06 1.15 1.30 1.39 1.35 1.36 1.37 1.33 1.25 1.14 1.16 1.29 1.32 1.37 1.35 1.40 1.27 1.08 1.04 1.11 1.08 1.06 1.06 1.03 1.00 1.01
0.34 0.39 0.50 0.59 0.69 0.69 0.77 0.77 0.78 0.73 0.74 0.72 0.74 0.82 0.95 1.05 0.99 1.07 1.14 1.17 1.38 1.36 1.40 1.37 1.32 1.16 1.09 1.10 1.22 1.32 1.34 1.23 1.31 1.39 1.07 0.99 0.95 1.02 1.10 1.01 0.98 0.98 0.95
0.41 0.52 0.60 0.63 0.72 0.77 0.76 0.78 0.84 0.85 0.87 0.86 0.82 0.89 0.82 0.83 0.94 1.03 1.13 1.19 1.32 1.34 1.37 1.34 1.29 1.08 1.11 1.09 1.20 1.37 1.33 1.35 1.23 1.37 1.25 1.15 1.09 0.93 0.87 0.98 0.94 1.03 0.93
0.47 0.58 0.61 0.64 0.64 0.74 0.69 0.69 0.74 0.88 0.96 0.96 0.95 0.99 0.94 1.00 1.07 1.07 1.08 1.13 1.25 1.32 1.36 1.33 1.21 1.04 1.07 1.09 1.22 1.31 1.35 1.42 1.31 1.29 1.27 1.16 1.09 1.05 0.90 0.78 0.80 1.01 0.95
0.63 0.61 0.64 0.61 0.69 0.76 0.71 0.73 0.72 0.74 0.82 0.91 0.95 0.98 0.98 0.99 0.99 1.01 1.01 1.08 1.21 1.30 1.32 1.28 1.15 1.07 1.09 1.16 1.26 1.34 1.40 1.43 1.38 1.36 1.32 1.22 1.09 0.99 0.91 0.79 0.80 0.85 0.92
0.67 0.62 0.61 0.62 0.63 0.62 0.63 0.61 0.71 0.75 0.82 0.85 0.93 0.98 1.01 1.05 1.03 1.06 1.09 1.13 1.18 1.24 1.28 1.19 1.14 1.08 1.12 1.19 1.30 1.39 1.42 1.48 1.37 1.34 1.30 1.29 1.19 1.15 1.02 0.86 0.83 0.81 0.95
0.65 0.60 0.60 0.56 0.58 0.59 0.58 0.59 0.58 0.74 0.89 0.87 0.88 1.01 1.05 1.12 1.11 1.24 1.19 1.19 1.21 1.26 1.22 1.18 1.16 1.13 1.13 1.20 1.31 1.40 1.44 1.47 1.43 1.37 1.34 1.28 1.19 1.24 1.10 0.92 0.87 0.84 0.90
0.58 0.57 0.57 0.56 0.56 0.54 0.60 0.62 0.62 0.64 0.84 0.80 0.83 0.95 1.05 1.14 1.18 1.24 1.23 1.21 1.26 1.27 1.19 1.15 1.07 1.06 1.09 1.19 1.29 1.35 1.39 1.44 1.43 1.42 1.38 1.29 1.23 1.26 1.15 1.13 1.02 0.93 0.81
0.51 0.46 0.49 0.55 0.56 0.58 0.64 0.66 0.67 0.66 0.70 0.81 0.86 0.89 1.04 1.13 1.25 1.27 1.25 1.21 1.26 1.29 1.19 1.11 1.01 1.01 1.12 1.22 1.31 1.35 1.41 1.40 1.41 1.41 1.33 1.33 1.37 1.21 1.19 1.11 1.12 1.10 0.96
0.34 0.35 0.41 0.49 0.53 0.61 0.63 0.65 0.65 0.65 0.66 0.73 0.84 0.89 0.96 1.09 1.20 1.24 1.24 1.24 1.28 1.30 1.20 1.11 1.01 1.03 1.12 1.24 1.31 1.34 1.36 1.36 1.36 1.40 1.36 1.33 1.33 1.32 1.14 1.07 1.13 1.08 1.08
0.34 0.32 0.29 0.39 0.50 0.59 0.65 0.65 0.63 0.63 0.67 0.74 0.78 0.87 0.92 1.05 1.14 1.18 1.23 1.28 1.29 1.32 1.25 1.14 1.01 1.03 1.12 1.22 1.31 1.33 1.34 1.33 1.32 1.35 1.37 1.31 1.31 1.24 1.21 1.07 1.05 1.06 1.13
0.31 0.31 0.30 0.29 0.45 0.56 0.69 0.69 0.65 0.62 0.66 0.70 0.77 0.86 0.88 0.95 1.06 1.17 1.23 1.27 1.29 1.31 1.30 1.15 1.01 1.03 1.10 1.12 1.18 1.28 1.28 1.34 1.33 1.35 1.33 1.32 1.28 1.20 1.20 1.10 1.08 1.10 1.16
0.30 0.28 0.30 0.31 0.53 0.70 0.70 0.68 0.65 0.63 0.67 0.67 0.74 0.84 0.90 0.92 1.02 1.18 1.21 1.23 1.28 1.28 1.20 1.15 1.04 1.05 1.09 1.10 1.14 1.20 1.24 1.24 1.29 1.35 1.36 1.33 1.30 1.21 1.20 1.16 1.13 1.09 1.11
0.28 0.27 0.33 0.58 0.62 0.64 0.64 0.63 0.60 0.63 0.67 0.66 0.69 0.81 0.93 0.99 1.02 1.14 1.20 1.21 1.23 1.22 1.17 1.15 1.12 1.10 1.07 1.08 1.11 1.16 1.18 1.19 1.20 1.27 1.34 1.36 1.29 1.29 1.26 1.12 1.12 1.07 1.03
0.30 0.32 0.58 0.57 0.55 0.54 0.52 0.47 0.55 0.59 0.63 0.65 0.65 0.78 0.89 1.00 1.01 1.11 1.18 1.17 1.17 1.19 1.16 1.09 1.05 1.02 1.04 1.06 1.13 1.15 1.15 1.17 1.18 1.21 1.26 1.30 1.26 1.30 1.30 1.25 1.22 1.14 1.04
0.43 0.46 0.49 0.47 0.48 0.49 0.46 0.46 0.50 0.57 0.59 0.62 0.64 0.70 0.85 0.98 1.03 1.09 1.16 1.13 1.14 1.15 1.10 1.07 1.01 0.96 1.00 1.08 1.11 1.15 1.16 1.17 1.20 1.20 1.23 1.21 1.21 1.27 1.24 1.24 1.20 1.15 1.12
0.49 0.49 0.49 0.48 0.49 0.49 0.45 0.47 0.50 0.54 0.56 0.58 0.61 0.66 0.82 0.95 1.03 1.12 1.13 1.13 1.14 1.09 1.06 1.04 0.97 0.93 0.96 1.00 1.02 1.05 1.10 1.08 1.12 1.17 1.18 1.20 1.16 1.18 1.21 1.18 1.13 1.10 1.08
0.50 0.51 0.52 0.50 0.49 0.47 0.46 0.46 0.49 0.52 0.55 0.55 0.58 0.64 0.76 0.92 0.96 1.05 1.10 1.11 1.13 1.06 1.03 1.01 0.93 0.91 0.89 0.91 0.95 0.97 0.97 0.98 1.03 1.09 1.11 1.14 1.12 1.13 1.15 1.11 1.06 1.01 0.99
0.49 0.49 0.48 0.50 0.48 0.48 0.46 0.46 0.49 0.51 0.53 0.55 0.56 0.65 0.71 0.89 0.95 1.05 1.14 1.09 1.12 1.04 1.03 0.99 0.92 0.88 0.87 0.87 0.87 0.93 0.92 0.88 0.89 1.01 1.03 1.05 1.07 1.06 1.07 1.05 1.01 0.94 0.91
0.55 0.52 0.51 0.48 0.49 0.47 0.48 0.48 0.48 0.49 0.55 0.57 0.57 0.63 0.73 0.83 0.99 1.03 1.12 1.08 1.06 1.02 0.99 0.95 0.90 0.86 0.85 0.84 0.84 0.85 0.85 0.83 0.82 0.85 0.88 0.94 0.98 0.99 0.99 0.99 0.96 0.93 0.89
0.51 0.52 0.51 0.48 0.48 0.47 0.48 0.47 0.48 0.51 0.55 0.57 0.56 0.62 0.68 0.78 1.03 1.02 1.08 1.07 1.04 0.99 0.98 0.93 0.85 0.83 0.83 0.83 0.82 0.83 0.83 0.82 0.80 0.77 0.76 0.79 0.84 0.89 0.89 0.87 0.82 0.78 0.73
0.44 0.48 0.49 0.48 0.46 0.46 0.47 0.46 0.50 0.52 0.56 0.56 0.55 0.61 0.66 0.75 0.91 0.99 1.04 1.00 1.00 0.98 0.98 0.91 0.83 0.79 0.79 0.79 0.80 0.79 0.80 0.80 0.77 0.74 0.73 0.71 0.70 0.70 0.69 0.69 0.69 0.67 0.63
0.40 0.43 0.45 0.46 0.46 0.47 0.46 0.47 0.51 0.55 0.56 0.55 0.55 0.60 0.68 0.72 0.84 0.93 0.93 0.98 0.96 0.96 0.97 0.93 0.86 0.80 0.78 0.77 0.77 0.77 0.78 0.78 0.75 0.75 0.74 0.73 0.72 0.70 0.69 0.67 0.64 0.62 0.61
0.40 0.40 0.40 0.43 0.46 0.48 0.47 0.49 0.52 0.55 0.55 0.55 0.56 0.59 0.68 0.67 0.73 0.85 0.86 0.89 0.95 0.99 0.95 0.93 0.92 0.88 0.81 0.80 0.81 0.79 0.77 0.77 0.77 0.77 0.73 0.70 0.68 0.65 0.63 0.62 0.62 0.62 0.61
0.39 0.39 0.39 0.43 0.47 0.51 0.50 0.51 0.54 0.56 0.54 0.52 0.56 0.60 0.63 0.65 0.71 0.77 0.80 0.85 0.89 0.93 0.93 0.92 0.92 0.88 0.89 0.87 0.84 0.83 0.81 0.80 0.79 0.76 0.72 0.70 0.69 0.67 0.65 0.63 0.63 0.60 0.54

GFSMW_prec_pwat_129.txt.gz
Precipitable_Water
0.57 0.61 0.62 0.60 0.61 0.62 0.64 0.70 0.73 0.73 0.73 0.96 1.03 1.09 0.98 1.00 0.97 1.04 1.17 1.23 1.33 1.40 1.40 1.40 1.37 1.37 1.35 1.28 1.25 1.14 1.22 1.28 1.36 1.33 1.37 1.35 1.37 1.29 1.17 1.05 1.04 0.98 0.92
0.50 0.51 0.50 0.55 0.58 0.60 0.65 0.71 0.75 0.77 0.83 0.81 0.83 0.92 0.95 0.92 0.88 0.97 1.00 1.16 1.19 1.38 1.39 1.42 1.36 1.36 1.33 1.30 1.21 1.11 1.12 1.25 1.33 1.20 1.23 1.11 1.19 1.20 1.25 1.11 1.01 0.99 0.99
0.46 0.49 0.53 0.57 0.60 0.63 0.66 0.67 0.71 0.75 0.77 0.77 0.73 0.73 0.92 0.99 0.92 0.97 0.98 1.09 1.15 1.26 1.40 1.40 1.38 1.37 1.38 1.25 1.16 1.09 1.05 1.12 1.26 1.33 1.16 0.98 0.98 1.08 1.20 1.11 1.02 1.02 0.98
0.46 0.48 0.56 0.61 0.70 0.72 0.72 0.70 0.73 0.69 0.77 0.84 0.79 0.79 0.71 0.74 0.86 0.88 0.96 1.18 1.20 1.25 1.36 1.42 1.39 1.40 1.39 1.29 1.14 1.10 1.10 1.14 1.13 1.30 1.29 1.19 1.14 1.02 1.00 1.11 1.05 1.04 1.01
0.52 0.56 0.61 0.68 0.79 0.82 0.81 0.77 0.70 0.72 0.83 0.95 0.99 0.95 0.87 0.90 0.96 0.99 1.07 1.16 1.17 1.28 1.29 1.45 1.40 1.38 1.38 1.29 1.13 1.01 1.13 1.14 1.18 1.22 1.24 1.20 1.18 1.16 1.03 0.94 0.94 1.01 1.01
0.54 0.57 0.64 0.78 0.82 0.85 0.80 0.69 0.67 0.73 0.81 0.85 0.93 1.07 1.04 1.00 0.99 1.04 1.07 1.15 1.17 1.20 1.26 1.38 1.39 1.38 1.34 1.23 1.03 1.09 1.11 1.17 1.27 1.30 1.29 1.21 1.11 1.07 1.04 0.99 0.96 0.88 0.93
0.57 0.61 0.62 0.66 0.74 0.75 0.72 0.61 0.59 0.70 0.79 0.87 0.92 0.88 0.97 1.05 1.00 1.02 1.09 1.01 1.04 1.10 1.18 1.31 1.33 1.33 1.32 1.16 1.09 1.08 1.10 1.19 1.29 1.32 1.35 1.35 1.26 1.21 1.14 1.04 0.98 0.89 0.92
0.55 0.62 0.64 0.64 0.65 0.64 0.61 0.58 0.60 0.64 0.79 0.81 0.85 0.89 0.93 1.05 1.08 1.08 1.11 1.12 1.07 1.10 1.20 1.28 1.34 1.34 1.27 1.15 1.10 1.09 1.12 1.25 1.36 1.38 1.41 1.39 1.33 1.28 1.21 1.08 0.95 0.87 0.88
0.62 0.64 0.64 0.62 0.61 0.64 0.62 0.63 0.59 0.58 0.63 0.75 0.76 0.85 0.89 0.98 1.05 1.12 1.21 1.24 1.26 1.23 1.28 1.32 1.34 1.29 1.19 1.16 1.09 1.08 1.14 1.32 1.37 1.37 1.39 1.39 1.38 1.35 1.29 1.19 1.05 0.88 0.74
0.65 0.62 0.60 0.61 0.60 0.60 0.59 0.61 0.61 0.57 0.56 0.61 0.69 0.72 0.84 0.95 1.04 1.14 1.25 1.27 1.27 1.29 1.27 1.28 1.27 1.24 1.18 1.15 1.09 1.09 1.21 1.32 1.38 1.40 1.40 1.41 1.40 1.37 1.34 1.25 1.16 1.06 0.87
0.59 0.55 0.55 0.51 0.56 0.58 0.62 0.65 0.63 0.63 0.60 0.59 0.65 0.70 0.75 0.90 0.98 1.11 1.23 1.30 1.32 1.28 1.26 1.28 1.23 1.17 1.11 1.10 1.03 1.08 1.18 1.28 1.33 1.38 1.38 1.38 1.41 1.35 1.36 1.33 1.25 1.14 1.04
0.49 0.42 0.35 0.44 0.50 0.61 0.64 0.62 0.66 0.65 0.67 0.64 0.62 0.65 0.74 0.83 0.94 1.03 1.17 1.31 1.32 1.33 1.29 1.27 1.27 1.16 1.09 1.04 1.02 1.06 1.15 1.23 1.26 1.31 1.35 1.36 1.40 1.33 1.32 1.33 1.26 1.20 1.18
0.38 0.39 0.38 0.46 0.55 0.67 0.66 0.64 0.63 0.64 0.67 0.65 0.58 0.62 0.67 0.80 0.90 0.96 1.13 1.23 1.34 1.30 1.30 1.29 1.24 1.18 1.11 1.04 1.05 1.08 1.12 1.17 1.25 1.27 1.30 1.34 1.34 1.29 1.30 1.33 1.29 1.23 1.19
0.30 0.33 0.50 0.58 0.57 0.59 0.57 0.58 0.62 0.62 0.62 0.59 0.55 0.58 0.65 0.73 0.89 0.95 1.02 1.16 1.33 1.30 1.27 1.26 1.29 1.24 1.14 1.07 1.06 1.07 1.08 1.11 1.19 1.23 1.25 1.30 1.32 1.28 1.29 1.28 1.28 1.22 1.11
0.38 0.47 0.52 0.57 0.58 0.55 0.57 0.57 0.58 0.57 0.56 0.48 0.52 0.55 0.64 0.72 0.85 0.94 0.98 1.13 1.25 1.35 1.30 1.26 1.30 1.27 1.15 1.09 1.08 1.07 1.10 1.12 1.16 1.19 1.23 1.24 1.30 1.35 1.36 1.29 1.22 1.23 1.12
0.48 0.53 0.58 0.57 0.54 0.52 0.50 0.51 0.51 0.48 0.46 0.46 0.50 0.55 0.61 0.68 0.75 0.95 0.98 1.06 1.23 1.32 1.27 1.23 1.25 1.24 1.19 1.13 1.09 1.07 1.06 1.10 1.11 1.11 1.18 1.22 1.26 1.31 1.36 1.31 1.30 1.25 1.13
0.44 0.45 0.47 0.45 0.45 0.45 0.45 0.44 0.45 0.45 0.44 0.43 0.48 0.53 0.56 0.62 0.68 0.86 1.00 1.02 1.13 1.22 1.20 1.15 1.20 1.18 1.18 1.15 1.11 1.06 1.09 1.07 1.09 1.11 1.11 1.13 1.28 1.29 1.30 1.28 1.24 1.23 1.17
0.45 0.46 0.47 0.48 0.49 0.49 0.48 0.47 0.46 0.45 0.45 0.43 0.44 0.51 0.53 0.57 0.65 0.84 0.99 1.01 1.09 1.16 1.12 1.10 1.15 1.09 1.10 1.10 1.04 1.04 1.02 1.00 1.04 1.10 1.14 1.18 1.19 1.23 1.25 1.19 1.14 1.15 1.11
0.43 0.41 0.43 0.45 0.47 0.46 0.46 0.45 0.46 0.45 0.43 0.42 0.43 0.48 0.52 0.55 0.61 0.76 0.94 0.98 1.09 1.16 1.07 1.06 1.09 1.03 1.05 1.06 1.01 1.01 0.96 0.93 0.94 1.04 1.08 1.14 1.14 1.18 1.23 1.15 1.09 1.06 1.04
0.45 0.45 0.47 0.51 0.49 0.49 0.49 0.47 0.44 0.44 0.43 0.44 0.45 0.49 0.52 0.54 0.58 0.69 0.83 0.99 1.06 1.11 1.01 1.03 1.06 1.02 1.01 1.01 0.98 0.94 0.91 0.87 0.88 0.89 0.99 1.08 1.08 1.10 1.16 1.13 1.06 1.02 0.98
0.43 0.46 0.49 0.49 0.50 0.50 0.49 0.43 0.41 0.40 0.43 0.47 0.48 0.50 0.54 0.56 0.57 0.66 0.78 0.92 0.98 1.09 0.97 1.00 1.02 0.97 0.98 0.97 0.94 0.89 0.86 0.87 0.84 0.80 0.83 0.94 1.01 1.03 1.05 1.06 1.04 1.00 0.99
0.41 0.43 0.44 0.45 0.45 0.45 0.44 0.40 0.38 0.41 0.44 0.48 0.49 0.51 0.53 0.57 0.58 0.62 0.73 0.87 0.90 0.98 0.99 0.94 0.95 0.93 0.94 0.94 0.91 0.86 0.85 0.85 0.81 0.77 0.76 0.82 0.88 0.93 0.97 0.97 0.96 0.94 0.92
0.40 0.39 0.38 0.37 0.39 0.41 0.42 0.39 0.40 0.42 0.43 0.48 0.50 0.51 0.52 0.56 0.57 0.60 0.68 0.79 0.89 0.86 1.01 0.89 0.90 0.89 0.91 0.91 0.88 0.83 0.81 0.79 0.78 0.77 0.76 0.75 0.74 0.77 0.85 0.88 0.87 0.85 0.81
0.36 0.37 0.35 0.34 0.34 0.37 0.41 0.44 0.45 0.45 0.44 0.47 0.50 0.53 0.53 0.55 0.56 0.63 0.68 0.74 0.82 0.82 0.91 0.88 0.88 0.90 0.89 0.88 0.85 0.80 0.78 0.76 0.75 0.75 0.74 0.72 0.71 0.73 0.72 0.68 0.66 0.66 0.67
0.35 0.35 0.34 0.34 0.35 0.38 0.41 0.46 0.48 0.48 0.47 0.48 0.51 0.52 0.53 0.54 0.55 0.60 0.63 0.69 0.81 0.89 0.86 0.90 0.95 0.95 0.89 0.89 0.87 0.83 0.78 0.77 0.76 0.74 0.72 0.71 0.69 0.67 0.64 0.63 0.63 0.65 0.66
0.34 0.36 0.36 0.37 0.38 0.41 0.44 0.48 0.52 0.51 0.49 0.49 0.52 0.51 0.52 0.52 0.54 0.57 0.57 0.66 0.76 0.83 0.85 0.87 0.90 0.93 0.93 0.91 0.88 0.85 0.82 0.81 0.80 0.77 0.73 0.70 0.68 0.69 0.69 0.68 0.67 0.67 0.64

GFSMW_prec_pwat_132.txt.gz
Precipitable_Water
0.42 0.45 0.54 0.59 0.64 0.66 0.68 0.83 0.99 1.11 1.22 1.27 1.18 1.19 1.11 1.19 1.19 1.24 1.19 1.17 1.22 1.29 1.33 1.41 1.50 1.45 1.31 1.32 1.35 1.33 1.19 1.06 1.23 1.23 1.27 1.28 1.37 1.39 1.34 1.32 1.12 0.96 0.97
0.41 0.44 0.51 0.65 0.65 0.69 0.76 0.82 0.85 0.91 1.07 1.20 1.19 1.19 1.14 1.07 1.11 1.19 1.13 1.12 1.14 1.18 1.25 1.39 1.44 1.47 1.39 1.31 1.34 1.31 1.20 1.07 1.16 1.09 1.16 1.08 1.21 1.34 1.34 1.35 1.22 1.03 1.03
0.39 0.44 0.56 0.70 0.75 0.76 0.79 0.82 0.88 0.93 0.97 0.99 0.96 1.01 1.08 1.06 1.03 1.04 1.02 0.99 1.04 1.14 1.17 1.28 1.38 1.41 1.41 1.30 1.32 1.35 1.22 1.02 1.05 1.16 1.07 1.00 0.97 1.18 1.30 1.31 1.27 1.09 1.01
0.40 0.49 0.62 0.73 0.73 0.80 0.83 0.84 0.85 0.85 0.91 0.98 0.93 0.92 0.90 0.87 0.89 0.84 0.85 0.94 1.09 1.20 1.21 1.22 1.31 1.40 1.44 1.37 1.36 1.40 1.28 1.11 0.93 1.09 1.17 1.17 1.15 1.04 1.00 1.23 1.27 1.18 1.03
0.47 0.52 0.63 0.72 0.78 0.81 0.79 0.79 0.77 0.75 0.77 0.85 0.94 0.97 0.95 0.88 0.90 0.95 0.91 0.97 1.06 1.12 1.16 1.23 1.32 1.36 1.40 1.40 1.41 1.37 1.30 1.19 0.98 0.95 1.08 1.09 1.12 1.15 1.05 0.99 1.10 1.19 1.10
0.45 0.50 0.62 0.82 0.84 0.87 0.79 0.75 0.72 0.73 0.78 0.82 0.83 0.83 0.85 0.94 0.97 0.99 0.97 1.03 1.13 1.18 1.17 1.21 1.28 1.37 1.41 1.39 1.41 1.40 1.34 1.18 1.09 1.00 1.12 1.05 1.07 1.03 1.04 1.02 1.06 1.09 1.03
0.42 0.52 0.63 0.72 0.78 0.81 0.78 0.72 0.67 0.71 0.82 0.81 0.79 0.84 0.85 0.86 0.90 1.04 1.12 1.09 1.14 1.20 1.18 1.26 1.26 1.31 1.42 1.41 1.40 1.38 1.31 1.21 0.97 1.06 1.08 1.15 1.20 1.19 1.14 1.11 1.08 1.08 1.11
0.45 0.51 0.63 0.72 0.75 0.81 0.79 0.70 0.64 0.61 0.69 0.74 0.71 0.77 0.78 0.85 0.90 1.02 1.16 1.15 1.07 1.11 1.16 1.20 1.28 1.31 1.39 1.40 1.38 1.38 1.28 1.12 1.06 1.08 1.15 1.20 1.34 1.32 1.25 1.16 1.09 1.03 1.05
0.51 0.60 0.68 0.72 0.74 0.75 0.70 0.64 0.59 0.59 0.55 0.53 0.58 0.66 0.70 0.73 0.85 0.95 1.11 1.11 1.18 1.19 1.21 1.21 1.21 1.29 1.30 1.34 1.37 1.32 1.19 1.10 1.08 1.07 1.18 1.33 1.40 1.40 1.33 1.28 1.20 1.06 0.94
0.65 0.69 0.70 0.72 0.74 0.75 0.71 0.67 0.65 0.58 0.57 0.57 0.59 0.60 0.65 0.70 0.75 0.88 0.95 1.08 1.21 1.28 1.30 1.27 1.25 1.26 1.28 1.36 1.35 1.24 1.15 1.06 1.09 1.15 1.26 1.38 1.39 1.41 1.40 1.33 1.28 1.19 1.06
0.73 0.70 0.75 0.77 0.78 0.76 0.74 0.68 0.62 0.63 0.64 0.65 0.61 0.57 0.55 0.61 0.73 0.82 0.93 1.05 1.15 1.35 1.33 1.29 1.27 1.26 1.29 1.35 1.27 1.19 1.16 1.03 1.13 1.20 1.30 1.37 1.39 1.38 1.38 1.35 1.31 1.21 1.15
0.63 0.69 0.73 0.78 0.79 0.75 0.70 0.63 0.64 0.66 0.68 0.67 0.65 0.60 0.57 0.59 0.63 0.72 0.85 1.00 1.11 1.26 1.31 1.36 1.27 1.25 1.24 1.25 1.23 1.17 1.13 1.04 1.04 1.12 1.23 1.31 1.35 1.37 1.37 1.32 1.28 1.24 1.20
0.61 0.60 0.68 0.72 0.78 0.73 0.69 0.68 0.70 0.67 0.61 0.59 0.59 0.57 0.52 0.55 0.62 0.66 0.80 0.87 1.01 1.15 1.28 1.36 1.26 1.21 1.22 1.24 1.21 1.16 1.10 1.05 1.07 1.11 1.12 1.23 1.29 1.31 1.34 1.34 1.30 1.28 1.23
0.61 0.63 0.63 0.71 0.70 0.69 0.66 0.66 0.63 0.59 0.54 0.54 0.52 0.50 0.49 0.51 0.56 0.63 0.70 0.85 0.91 1.07 1.26 1.29 1.34 1.27 1.21 1.22 1.21 1.15 1.09 1.05 1.07 1.11 1.15 1.21 1.22 1.28 1.32 1.31 1.32 1.30 1.22
0.60 0.60 0.61 0.65 0.66 0.63 0.63 0.63 0.60 0.52 0.48 0.45 0.42 0.41 0.44 0.50 0.53 0.58 0.64 0.78 0.86 0.97 1.17 1.28 1.30 1.29 1.22 1.22 1.22 1.16 1.11 1.06 1.05 1.08 1.12 1.18 1.22 1.27 1.30 1.30 1.30 1.28 1.20
0.55 0.55 0.56 0.56 0.56 0.57 0.55 0.52 0.47 0.44 0.44 0.43 0.42 0.42 0.41 0.43 0.49 0.54 0.60 0.67 0.87 0.90 1.07 1.23 1.32 1.24 1.23 1.18 1.26 1.21 1.12 1.07 1.02 1.02 1.11 1.19 1.20 1.22 1.26 1.28 1.31 1.30 1.15
0.50 0.49 0.49 0.50 0.51 0.49 0.47 0.44 0.43 0.42 0.43 0.42 0.46 0.43 0.42 0.42 0.46 0.51 0.57 0.63 0.79 0.92 0.94 1.09 1.19 1.27 1.23 1.18 1.24 1.20 1.15 1.07 1.02 1.01 1.06 1.12 1.15 1.20 1.20 1.25 1.29 1.26 1.24
0.43 0.43 0.43 0.44 0.42 0.41 0.40 0.41 0.41 0.39 0.40 0.41 0.45 0.44 0.43 0.42 0.46 0.49 0.56 0.62 0.78 0.91 0.91 1.05 1.14 1.34 1.15 1.17 1.22 1.24 1.17 1.07 1.00 1.02 1.03 1.07 1.10 1.18 1.13 1.19 1.19 1.22 1.21
0.41 0.41 0.41 0.41 0.40 0.39 0.39 0.38 0.38 0.39 0.40 0.41 0.41 0.45 0.44 0.42 0.45 0.49 0.53 0.62 0.72 0.85 0.94 0.98 1.04 1.23 1.13 1.05 1.15 1.12 1.08 1.00 0.94 0.96 0.97 1.00 1.09 1.14 1.17 1.16 1.09 1.11 1.13
0.41 0.40 0.39 0.39 0.40 0.41 0.44 0.42 0.40 0.40 0.38 0.39 0.41 0.43 0.46 0.45 0.45 0.50 0.54 0.59 0.65 0.76 0.96 0.89 0.97 1.04 1.07 1.01 1.08 1.07 1.04 0.94 0.91 0.90 0.93 0.94 1.00 1.13 1.12 1.11 1.11 1.06 1.06
0.37 0.38 0.37 0.37 0.38 0.41 0.41 0.40 0.40 0.40 0.41 0.40 0.41 0.43 0.45 0.45 0.46 0.49 0.55 0.58 0.60 0.72 0.90 0.92 1.06 1.11 1.09 0.95 1.01 1.03 1.00 0.97 0.89 0.84 0.84 0.87 0.91 1.02 1.08 1.06 1.06 1.07 1.06
0.39 0.39 0.37 0.36 0.36 0.36 0.36 0.36 0.37 0.42 0.42 0.42 0.42 0.43 0.45 0.45 0.47 0.47 0.51 0.59 0.58 0.61 0.78 0.86 0.82 0.97 1.03 0.91 0.96 0.96 0.97 0.95 0.88 0.80 0.82 0.83 0.83 0.87 0.97 0.99 0.99 1.04 1.04
0.35 0.35 0.33 0.34 0.35 0.35 0.35 0.34 0.36 0.40 0.43 0.42 0.41 0.42 0.43 0.44 0.46 0.49 0.50 0.53 0.55 0.54 0.63 0.73 0.86 0.90 1.00 0.90 0.94 0.93 0.93 0.92 0.86 0.82 0.79 0.79 0.76 0.78 0.83 0.89 0.93 0.95 0.94
0.31 0.33 0.32 0.32 0.33 0.36 0.37 0.37 0.38 0.39 0.40 0.40 0.41 0.42 0.43 0.43 0.44 0.50 0.52 0.51 0.53 0.52 0.58 0.68 0.75 0.85 0.90 0.87 0.90 0.91 0.89 0.87 0.83 0.78 0.73 0.73 0.72 0.70 0.69 0.75 0.81 0.84 0.85
0.32 0.34 0.33 0.34 0.36 0.38 0.38 0.39 0.39 0.40 0.40 0.41 0.43 0.44 0.43 0.44 0.44 0.50 0.51 0.52 0.55 0.56 0.58 0.63 0.70 0.76 0.81 0.91 0.93 0.92 0.88 0.87 0.84 0.79 0.73 0.70 0.66 0.65 0.65 0.66 0.68 0.71 0.73
0.33 0.34 0.35 0.37 0.38 0.39 0.39 0.41 0.42 0.43 0.43 0.43 0.45 0.44 0.45 0.46 0.47 0.50 0.48 0.52 0.53 0.56 0.62 0.68 0.74 0.81 0.84 0.87 0.86 0.87 0.92 0.89 0.87 0.79 0.74 0.69 0.68 0.65 0.66 0.65 0.65 0.64 0.64

GFSMW_prec_pwat_135.txt.gz
Precipitable_Water
0.31 0.36 0.42 0.47 0.50 0.59 0.59 0.66 0.84 0.96 1.03 1.08 1.12 1.18 1.19 1.31 1.40 1.44 1.40 1.36 1.32 1.28 1.26 1.23 1.25 1.26 1.25 1.29 1.34 1.32 1.32 1.30 1.25 1.08 1.13 1.24 1.40 1.38 1.43 1.42 1.24 1.10 1.05
0.28 0.31 0.36 0.43 0.49 0.59 0.64 0.71 0.84 0.92 1.02 1.09 1.19 1.22 1.21 1.25 1.31 1.37 1.37 1.38 1.37 1.29 1.22 1.18 1.20 1.26 1.36 1.43 1.44 1.30 1.24 1.26 1.26 1.00 0.95 0.92 1.09 1.26 1.37 1.35 1.25 1.24 1.10
0.25 0.28 0.34 0.46 0.53 0.68 0.80 0.78 0.89 0.98 1.12 1.23 1.26 1.33 1.33 1.27 1.22 1.23 1.21 1.25 1.33 1.32 1.23 1.13 1.19 1.21 1.37 1.39 1.45 1.37 1.24 1.16 1.24 1.17 0.91 0.86 0.78 1.06 1.23 1.31 1.36 1.33 1.26
0.28 0.30 0.35 0.48 0.60 0.81 0.93 0.95 1.00 1.05 1.09 1.13 1.10 1.09 1.09 1.01 1.04 1.04 1.06 1.09 1.20 1.23 1.19 1.16 1.12 1.14 1.26 1.32 1.38 1.40 1.33 1.26 1.15 1.18 1.09 1.03 0.97 0.89 0.96 1.25 1.32 1.34 1.30
0.22 0.24 0.35 0.50 0.68 0.80 0.90 0.96 0.98 0.98 1.02 1.02 0.98 0.95 0.94 0.97 1.00 1.02 1.04 1.07 1.13 1.13 1.14 1.21 1.23 1.24 1.21 1.23 1.35 1.38 1.36 1.35 1.26 1.17 1.04 1.00 0.94 1.06 0.98 0.98 1.13 1.27 1.31
0.25 0.29 0.44 0.59 0.75 0.76 0.85 0.92 0.91 0.93 0.94 0.95 0.91 0.84 0.88 0.93 0.94 0.96 0.98 1.01 1.09 1.07 1.10 1.16 1.15 1.19 1.15 1.20 1.32 1.41 1.40 1.40 1.32 1.26 1.11 0.94 0.86 0.84 0.95 0.97 1.06 1.11 1.23
0.34 0.31 0.49 0.64 0.73 0.77 0.81 0.89 0.94 0.95 0.97 0.95 0.95 0.91 0.91 0.91 0.86 0.87 0.97 1.02 1.06 1.11 1.14 1.20 1.26 1.26 1.24 1.26 1.34 1.37 1.39 1.38 1.36 1.28 1.17 1.08 0.96 0.97 1.00 1.01 1.04 1.07 1.20
0.39 0.34 0.43 0.61 0.67 0.74 0.78 0.80 0.81 0.81 0.88 0.86 0.82 0.83 0.80 0.73 0.69 0.76 0.86 0.92 1.06 1.17 1.27 1.30 1.31 1.35 1.23 1.27 1.35 1.39 1.40 1.39 1.38 1.29 1.24 1.12 0.99 1.02 1.11 1.02 1.04 1.05 1.08
0.52 0.46 0.55 0.73 0.77 0.81 0.81 0.80 0.75 0.77 0.75 0.70 0.69 0.66 0.67 0.64 0.67 0.72 0.81 0.90 1.00 1.12 1.26 1.28 1.22 1.28 1.24 1.31 1.34 1.33 1.40 1.38 1.35 1.33 1.23 1.10 0.99 1.13 1.23 1.21 1.19 1.12 1.00
0.60 0.70 0.83 0.89 0.88 0.88 0.86 0.80 0.76 0.74 0.73 0.68 0.64 0.60 0.56 0.60 0.63 0.73 0.78 0.82 0.91 1.05 1.17 1.18 1.21 1.18 1.18 1.20 1.29 1.28 1.36 1.35 1.33 1.33 1.21 0.97 1.06 1.17 1.31 1.33 1.27 1.28 1.14
0.63 0.77 0.89 0.93 0.93 0.92 0.84 0.77 0.76 0.74 0.71 0.72 0.69 0.67 0.61 0.55 0.60 0.69 0.73 0.79 0.87 0.94 1.04 1.15 1.22 1.22 1.23 1.22 1.23 1.28 1.27 1.30 1.29 1.25 1.08 0.99 1.10 1.19 1.31 1.33 1.37 1.30 1.25
0.67 0.80 0.88 0.89 0.88 0.85 0.80 0.76 0.74 0.72 0.70 0.66 0.63 0.59 0.59 0.57 0.55 0.57 0.62 0.72 0.77 0.89 0.99 1.16 1.21 1.30 1.26 1.26 1.21 1.19 1.24 1.27 1.22 1.09 1.07 0.97 1.16 1.17 1.32 1.33 1.32 1.29 1.28
0.67 0.73 0.78 0.80 0.81 0.79 0.79 0.77 0.72 0.69 0.66 0.62 0.55 0.51 0.49 0.49 0.49 0.52 0.57 0.60 0.67 0.76 0.90 0.99 1.14 1.32 1.32 1.26 1.24 1.23 1.24 1.25 1.20 1.15 1.11 1.06 1.09 1.09 1.21 1.32 1.28 1.29 1.28
0.63 0.67 0.68 0.72 0.74 0.74 0.73 0.71 0.68 0.68 0.65 0.59 0.52 0.46 0.44 0.44 0.42 0.45 0.50 0.58 0.61 0.71 0.82 0.89 1.08 1.17 1.30 1.34 1.26 1.21 1.22 1.21 1.22 1.19 1.15 1.09 1.07 1.07 1.13 1.20 1.22 1.29 1.24
0.59 0.61 0.63 0.64 0.66 0.66 0.66 0.64 0.62 0.62 0.57 0.51 0.49 0.45 0.43 0.40 0.40 0.42 0.45 0.52 0.58 0.62 0.78 0.84 0.96 1.14 1.19 1.38 1.33 1.22 1.19 1.18 1.17 1.13 1.13 1.09 1.10 1.13 1.17 1.15 1.21 1.24 1.18
0.52 0.54 0.57 0.56 0.54 0.53 0.52 0.51 0.51 0.48 0.47 0.46 0.43 0.43 0.41 0.41 0.40 0.40 0.40 0.46 0.53 0.58 0.66 0.83 0.87 0.98 1.16 1.26 1.34 1.28 1.18 1.19 1.16 1.12 1.13 1.10 1.09 1.08 1.14 1.17 1.22 1.24 1.14
0.45 0.46 0.47 0.51 0.50 0.49 0.49 0.49 0.46 0.44 0.44 0.42 0.39 0.39 0.42 0.44 0.45 0.45 0.42 0.43 0.49 0.56 0.60 0.75 0.86 0.90 1.01 1.16 1.30 1.33 1.21 1.14 1.14 1.15 1.13 1.03 1.07 1.08 1.13 1.16 1.16 1.18 1.20
0.43 0.42 0.44 0.44 0.45 0.46 0.46 0.46 0.46 0.44 0.41 0.39 0.37 0.38 0.39 0.42 0.47 0.48 0.45 0.44 0.49 0.53 0.58 0.70 0.81 0.92 0.95 1.08 1.20 1.38 1.26 1.14 1.13 1.16 1.15 1.04 1.02 1.07 1.08 1.12 1.08 1.12 1.15
0.42 0.42 0.42 0.41 0.40 0.39 0.39 0.40 0.40 0.40 0.39 0.37 0.37 0.39 0.41 0.40 0.43 0.44 0.45 0.44 0.46 0.53 0.56 0.64 0.80 0.86 0.90 0.99 1.16 1.31 1.20 1.08 1.13 1.14 1.10 1.06 1.02 1.04 1.04 1.01 1.01 1.05 1.02
0.39 0.38 0.38 0.37 0.37 0.37 0.36 0.36 0.36 0.37 0.38 0.38 0.39 0.40 0.40 0.38 0.39 0.43 0.44 0.44 0.46 0.52 0.58 0.59 0.69 0.78 0.88 0.97 0.98 1.17 1.15 1.07 1.07 1.07 1.08 1.05 0.98 1.00 0.98 0.98 1.02 0.99 1.07
0.38 0.38 0.37 0.35 0.35 0.35 0.35 0.34 0.34 0.33 0.36 0.38 0.40 0.40 0.39 0.38 0.39 0.41 0.43 0.45 0.45 0.47 0.56 0.56 0.63 0.74 0.86 0.85 1.06 1.05 1.12 1.07 1.01 1.00 0.99 0.97 0.96 0.94 0.93 0.94 0.96 1.03 1.07
0.35 0.35 0.33 0.33 0.34 0.34 0.35 0.34 0.32 0.35 0.35 0.35 0.36 0.38 0.39 0.38 0.38 0.39 0.42 0.43 0.46 0.45 0.49 0.53 0.57 0.65 0.84 0.86 1.01 1.05 1.15 1.05 0.98 0.95 0.94 0.95 0.94 0.90 0.88 0.87 0.87 0.97 1.01
0.32 0.32 0.32 0.31 0.32 0.33 0.33 0.32 0.34 0.35 0.35 0.35 0.36 0.36 0.38 0.39 0.40 0.39 0.40 0.41 0.43 0.45 0.47 0.47 0.50 0.55 0.68 0.88 0.94 0.97 1.04 1.01 0.96 0.91 0.91 0.93 0.87 0.84 0.80 0.79 0.81 0.85 0.93
0.30 0.31 0.31 0.30 0.30 0.33 0.34 0.34 0.35 0.35 0.34 0.34 0.36 0.37 0.38 0.39 0.40 0.41 0.42 0.42 0.41 0.43 0.47 0.46 0.47 0.50 0.57 0.76 0.86 0.94 0.96 0.96 0.91 0.84 0.86 0.86 0.81 0.80 0.74 0.72 0.72 0.76 0.81
0.32 0.32 0.31 0.30 0.32 0.34 0.35 0.36 0.37 0.35 0.34 0.36 0.36 0.36 0.38 0.39 0.40 0.41 0.42 0.43 0.43 0.45 0.46 0.49 0.50 0.50 0.54 0.69 0.77 0.80 0.87 0.90 0.86 0.85 0.84 0.81 0.77 0.72 0.69 0.66 0.65 0.67 0.72
0.29 0.30 0.31 0.31 0.32 0.34 0.36 0.37 0.38 0.36 0.36 0.37 0.38 0.38 0.38 0.40 0.41 0.43 0.42 0.43 0.45 0.48 0.50 0.53 0.52 0.52 0.54 0.61 0.72 0.83 0.86 0.87 0.79 0.78 0.80 0.79 0.76 0.71 0.69 0.63 0.60 0.63 0.65

GFSMW_prec_pwat_138.txt.gz
Precipitable_Water
0.27 0.29 0.30 0.35 0.38 0.43 0.46 0.48 0.60 0.79 0.94 1.09 1.15 1.20 1.14 1.22 1.29 1.33 1.39 1.36 1.35 1.32 1.29 1.25 1.24 1.25 1.17 1.18 1.21 1.22 1.26 1.30 1.32 1.25 1.16 1.06 1.14 1.28 1.41 1.49 1.45 1.45 1.32
0.25 0.27 0.28 0.30 0.34 0.36 0.44 0.49 0.54 0.79 0.92 1.04 1.19 1.24 1.22 1.27 1.33 1.47 1.50 1.44 1.41 1.37 1.29 1.28 1.21 1.23 1.23 1.24 1.21 1.21 1.25 1.35 1.34 1.15 1.09 0.86 0.89 1.09 1.26 1.40 1.40 1.40 1.34
0.23 0.25 0.27 0.29 0.34 0.37 0.37 0.46 0.52 0.70 0.92 1.10 1.22 1.18 1.25 1.30 1.35 1.34 1.37 1.46 1.46 1.48 1.41 1.35 1.27 1.19 1.20 1.21 1.23 1.31 1.33 1.22 1.29 1.25 1.09 0.87 0.67 0.82 1.07 1.24 1.34 1.33 1.26
0.28 0.27 0.25 0.24 0.30 0.37 0.46 0.55 0.65 0.83 0.98 1.12 1.16 1.04 1.01 1.03 1.13 1.31 1.26 1.48 1.48 1.43 1.40 1.37 1.31 1.25 1.19 1.11 1.24 1.34 1.36 1.34 1.17 1.25 1.23 1.16 0.97 0.72 0.73 1.02 1.24 1.33 1.24
0.31 0.27 0.26 0.27 0.33 0.53 0.60 0.73 0.80 0.97 1.02 1.08 1.13 1.13 1.20 1.08 1.11 1.24 1.24 1.26 1.34 1.34 1.33 1.32 1.27 1.20 1.17 1.13 1.11 1.20 1.29 1.33 1.29 1.21 1.20 1.18 1.05 0.96 0.79 0.69 0.95 1.24 1.31
0.38 0.34 0.34 0.35 0.41 0.66 0.76 0.88 0.86 0.97 1.11 1.18 1.18 1.09 1.17 1.14 1.09 0.93 0.94 1.01 1.08 1.14 1.18 1.22 1.19 1.19 1.14 1.18 1.20 1.20 1.23 1.29 1.33 1.32 1.29 1.16 1.06 0.91 0.82 0.75 0.81 1.02 1.19
0.40 0.39 0.39 0.38 0.50 0.75 0.81 0.89 0.97 0.91 0.98 0.96 1.03 1.10 0.96 0.96 0.90 0.92 0.95 1.02 0.97 0.99 1.04 1.11 1.14 1.14 1.14 1.17 1.22 1.20 1.17 1.21 1.31 1.33 1.33 1.29 1.20 1.12 0.97 0.84 0.80 0.90 1.11
0.49 0.47 0.46 0.41 0.59 0.82 0.94 0.92 0.95 0.92 0.94 0.90 0.94 0.98 1.00 0.92 0.88 0.86 0.83 0.84 0.94 0.96 1.11 1.15 1.20 1.19 1.21 1.26 1.29 1.28 1.21 1.23 1.31 1.33 1.34 1.35 1.28 1.23 1.08 0.92 0.83 0.77 0.93
0.55 0.58 0.61 0.61 0.70 0.76 0.91 0.94 0.93 0.91 0.85 0.84 0.85 0.85 0.87 0.83 0.81 0.84 0.84 0.84 0.89 0.92 1.00 1.10 1.20 1.26 1.30 1.32 1.34 1.37 1.21 1.23 1.29 1.31 1.34 1.34 1.35 1.29 1.23 1.07 0.94 0.90 0.85
0.60 0.67 0.72 0.76 0.75 0.73 0.75 0.80 0.77 0.78 0.78 0.78 0.80 0.82 0.77 0.75 0.72 0.70 0.71 0.75 0.82 0.90 0.96 1.01 1.11 1.19 1.30 1.32 1.36 1.40 1.25 1.24 1.29 1.36 1.31 1.32 1.35 1.30 1.27 1.15 0.97 1.03 1.11
0.60 0.61 0.64 0.75 0.81 0.74 0.72 0.75 0.76 0.79 0.79 0.82 0.80 0.73 0.70 0.64 0.58 0.56 0.59 0.65 0.72 0.81 0.88 0.93 1.01 1.11 1.15 1.25 1.20 1.18 1.20 1.18 1.24 1.32 1.31 1.31 1.34 1.29 1.25 1.10 0.99 1.12 1.17
0.60 0.63 0.64 0.70 0.68 0.75 0.75 0.75 0.74 0.76 0.77 0.77 0.73 0.70 0.58 0.54 0.54 0.53 0.55 0.56 0.58 0.68 0.79 0.87 0.92 0.99 1.12 1.24 1.21 1.20 1.15 1.12 1.19 1.25 1.27 1.29 1.31 1.25 1.16 1.00 1.05 1.10 1.17
0.58 0.61 0.64 0.67 0.64 0.71 0.75 0.76 0.74 0.72 0.72 0.69 0.63 0.57 0.52 0.49 0.45 0.46 0.51 0.57 0.59 0.62 0.67 0.80 0.87 0.95 1.10 1.16 1.22 1.26 1.21 1.19 1.21 1.30 1.24 1.25 1.26 1.15 1.04 1.06 1.10 1.08 1.18
0.54 0.57 0.59 0.63 0.62 0.65 0.72 0.69 0.69 0.70 0.67 0.64 0.60 0.50 0.46 0.46 0.46 0.46 0.45 0.45 0.49 0.53 0.60 0.65 0.79 0.88 1.02 1.09 1.25 1.27 1.26 1.22 1.23 1.26 1.26 1.27 1.22 1.09 1.09 1.10 1.09 1.10 1.05
0.50 0.52 0.54 0.56 0.59 0.58 0.61 0.63 0.61 0.58 0.55 0.51 0.47 0.43 0.45 0.46 0.47 0.46 0.45 0.43 0.44 0.47 0.54 0.57 0.66 0.78 0.87 0.97 1.11 1.19 1.30 1.26 1.22 1.23 1.23 1.26 1.25 1.21 1.17 1.14 1.08 1.08 1.05
0.48 0.49 0.49 0.49 0.51 0.53 0.51 0.50 0.51 0.52 0.50 0.46 0.43 0.44 0.43 0.43 0.46 0.45 0.43 0.42 0.44 0.45 0.47 0.54 0.58 0.65 0.79 0.92 1.05 1.13 1.22 1.33 1.27 1.19 1.20 1.21 1.21 1.20 1.18 1.16 1.12 1.11 1.00
0.44 0.45 0.44 0.43 0.46 0.47 0.49 0.47 0.49 0.51 0.49 0.46 0.44 0.43 0.43 0.42 0.45 0.45 0.44 0.43 0.44 0.46 0.48 0.50 0.56 0.61 0.72 0.87 0.95 1.12 1.18 1.24 1.33 1.28 1.17 1.14 1.16 1.19 1.18 1.16 1.10 1.08 1.04
0.40 0.40 0.40 0.40 0.42 0.43 0.44 0.45 0.46 0.45 0.45 0.45 0.44 0.43 0.43 0.43 0.44 0.43 0.44 0.45 0.47 0.46 0.46 0.50 0.52 0.57 0.65 0.82 0.91 0.97 1.07 1.17 1.23 1.34 1.28 1.16 1.15 1.18 1.15 1.12 1.06 1.02 1.06
0.39 0.38 0.38 0.38 0.39 0.39 0.39 0.40 0.41 0.40 0.42 0.40 0.41 0.41 0.42 0.41 0.41 0.40 0.40 0.41 0.42 0.45 0.48 0.49 0.51 0.53 0.58 0.75 0.86 0.93 0.94 0.98 1.07 1.19 1.27 1.18 1.14 1.18 1.15 1.09 0.99 0.99 0.99
0.38 0.37 0.37 0.36 0.36 0.36 0.36 0.36 0.36 0.35 0.34 0.36 0.36 0.38 0.40 0.42 0.40 0.40 0.40 0.40 0.39 0.42 0.45 0.46 0.49 0.53 0.55 0.62 0.74 0.92 0.90 0.91 0.96 1.06 1.17 1.22 1.15 1.15 1.12 1.07 1.01 0.93 0.92
0.36 0.36 0.36 0.33 0.33 0.34 0.34 0.33 0.33 0.33 0.34 0.35 0.34 0.34 0.35 0.35 0.37 0.38 0.38 0.38 0.38 0.38 0.41 0.44 0.47 0.48 0.54 0.59 0.65 0.83 0.91 0.86 0.87 0.96 1.04 1.12 1.15 1.14 1.11 1.10 1.00 0.97 0.96
0.34 0.34 0.33 0.33 0.33 0.33 0.33 0.31 0.31 0.34 0.34 0.35 0.34 0.33 0.33 0.33 0.34 0.34 0.36 0.37 0.37 0.36 0.37 0.39 0.42 0.47 0.48 0.56 0.61 0.74 0.91 0.97 0.92 1.06 1.14 1.12 1.07 1.06 1.03 1.02 0.98 0.94 0.90
0.32 0.33 0.32 0.31 0.31 0.32 0.33 0.31 0.32 0.33 0.33 0.33 0.33 0.32 0.34 0.34 0.34 0.33 0.34 0.34 0.35 0.34 0.35 0.36 0.37 0.40 0.47 0.49 0.58 0.63 0.85 0.90 0.87 0.97 1.02 1.09 1.00 1.00 0.96 0.93 0.93 0.90 0.86
0.29 0.30 0.30 0.30 0.31 0.32 0.32 0.33 0.34 0.35 0.34 0.32 0.32 0.32 0.32 0.33 0.34 0.35 0.35 0.34 0.34 0.34 0.34 0.35 0.36 0.39 0.44 0.46 0.51 0.56 0.70 0.87 0.86 0.92 0.96 1.01 0.95 0.91 0.86 0.86 0.86 0.82 0.82
0.28 0.29 0.28 0.28 0.29 0.32 0.33 0.33 0.33 0.35 0.33 0.33 0.32 0.32 0.32 0.33 0.34 0.36 0.35 0.37 0.38 0.38 0.37 0.39 0.40 0.40 0.42 0.47 0.49 0.52 0.56 0.73 0.86 0.89 0.87 0.91 0.89 0.85 0.78 0.78 0.79 0.77 0.75
0.27 0.27 0.27 0.26 0.27 0.27 0.29 0.31 0.33 0.33 0.32 0.31 0.32 0.32 0.32 0.33 0.34 0.35 0.37 0.38 0.40 0.44 0.43 0.44 0.45 0.47 0.47 0.51 0.51 0.53 0.56 0.62 0.77 0.81 0.84 0.83 0.83 0.78 0.74 0.74 0.74 0.72 0.69

GFSMW_prec_pwat_141.txt.gz
Precipitable_Water
0.24 0.29 0.32 0.36 0.35 0.37 0.41 0.43 0.45 0.50 0.70 0.76 0.81 0.87 0.85 1.01 1.18 1.30 1.35 1.39 1.31 1.31 1.31 1.29 1.28 1.27 1.19 1.19 1.20 1.17 1.14 1.15 1.24 1.22 1.26 1.26 1.26 1.15 1.14 1.29 1.42 1.45 1.46
0.26 0.29 0.34 0.35 0.35 0.36 0.37 0.39 0.43 0.47 0.64 0.78 0.80 0.87 0.90 1.00 1.17 1.32 1.39 1.39 1.47 1.48 1.42 1.35 1.32 1.32 1.28 1.23 1.20 1.16 1.09 1.13 1.23 1.16 1.20 0.99 1.07 1.15 1.10 1.14 1.29 1.43 1.47
0.26 0.27 0.28 0.33 0.36 0.34 0.35 0.36 0.40 0.47 0.54 0.72 0.88 0.96 1.05 1.14 1.18 1.26 1.31 1.38 1.49 1.61 1.55 1.49 1.46 1.38 1.35 1.26 1.24 1.19 1.12 1.01 1.15 1.30 1.14 0.97 0.82 0.99 1.09 0.95 1.15 1.32 1.38
0.31 0.31 0.30 0.28 0.29 0.31 0.35 0.41 0.45 0.50 0.52 0.75 0.88 0.88 0.87 0.93 1.12 1.19 1.32 1.27 1.27 1.34 1.41 1.52 1.56 1.51 1.43 1.34 1.28 1.26 1.18 1.14 1.08 1.30 1.33 1.26 1.05 0.89 0.79 0.93 0.99 1.18 1.29
0.35 0.34 0.36 0.37 0.36 0.37 0.36 0.47 0.52 0.60 0.68 0.81 0.93 0.98 1.01 1.14 1.24 1.30 1.31 1.28 1.27 1.21 1.25 1.39 1.52 1.39 1.43 1.38 1.32 1.27 1.22 1.21 1.16 1.21 1.24 1.23 1.16 1.11 0.92 0.74 0.80 0.99 1.18
0.40 0.43 0.43 0.46 0.43 0.45 0.51 0.57 0.62 0.70 0.89 0.99 1.07 1.13 1.16 1.06 1.04 1.10 1.15 1.47 1.30 1.27 1.31 1.12 1.32 1.30 1.36 1.42 1.33 1.28 1.26 1.17 1.12 1.16 1.27 1.23 1.13 1.06 1.03 0.92 0.85 0.79 0.96
0.46 0.49 0.52 0.51 0.51 0.54 0.62 0.74 0.78 0.79 0.93 1.06 1.17 1.24 1.20 1.04 1.03 1.09 1.10 1.20 1.32 1.23 1.24 1.24 1.23 1.14 1.27 1.26 1.28 1.25 1.21 1.19 1.15 1.12 1.17 1.29 1.27 1.27 1.16 1.07 0.96 0.81 0.86
0.49 0.52 0.56 0.54 0.58 0.65 0.72 0.78 0.86 0.87 0.99 1.04 1.05 1.14 1.19 1.02 1.04 1.07 1.16 1.23 1.19 1.20 1.25 1.12 1.11 1.11 1.20 1.24 1.25 1.20 1.17 1.21 1.22 1.21 1.16 1.21 1.35 1.37 1.30 1.15 1.05 0.86 0.84
0.51 0.54 0.56 0.61 0.57 0.63 0.64 0.76 0.87 0.90 0.93 0.98 0.99 0.99 0.95 0.86 0.90 0.92 0.94 0.93 0.98 1.06 1.12 1.09 1.04 1.09 1.09 1.17 1.26 1.18 1.15 1.24 1.22 1.19 1.18 1.17 1.32 1.36 1.37 1.28 1.18 1.02 0.79
0.52 0.55 0.60 0.62 0.68 0.66 0.67 0.70 0.82 0.88 0.90 0.88 0.85 0.83 0.81 0.80 0.79 0.85 0.85 0.89 0.91 0.94 0.94 0.95 0.95 1.05 1.10 1.16 1.28 1.25 1.27 1.28 1.32 1.32 1.22 1.16 1.31 1.33 1.37 1.33 1.29 1.20 1.03
0.53 0.56 0.57 0.62 0.63 0.68 0.68 0.66 0.69 0.81 0.85 0.85 0.78 0.74 0.74 0.73 0.71 0.72 0.74 0.73 0.74 0.72 0.74 0.81 0.84 0.98 1.06 1.11 1.17 1.24 1.29 1.30 1.32 1.39 1.28 1.17 1.29 1.30 1.33 1.36 1.33 1.22 1.17
0.52 0.54 0.56 0.58 0.60 0.61 0.65 0.65 0.66 0.64 0.73 0.77 0.75 0.74 0.71 0.70 0.69 0.61 0.60 0.59 0.51 0.55 0.59 0.66 0.76 0.85 0.97 1.06 1.11 1.13 1.19 1.21 1.22 1.29 1.25 1.16 1.27 1.32 1.35 1.32 1.28 1.23 1.23
0.51 0.53 0.54 0.55 0.57 0.59 0.61 0.64 0.66 0.63 0.63 0.66 0.67 0.66 0.65 0.65 0.60 0.51 0.47 0.46 0.47 0.50 0.55 0.59 0.62 0.76 0.87 0.96 1.06 1.11 1.14 1.21 1.24 1.18 1.16 1.15 1.21 1.25 1.30 1.32 1.28 1.25 1.21
0.48 0.50 0.51 0.52 0.55 0.57 0.58 0.63 0.66 0.66 0.66 0.67 0.67 0.66 0.63 0.60 0.51 0.47 0.46 0.48 0.47 0.45 0.50 0.56 0.58 0.65 0.76 0.86 0.98 1.14 1.14 1.19 1.21 1.28 1.21 1.16 1.15 1.24 1.28 1.25 1.26 1.23 1.05
0.41 0.45 0.46 0.48 0.50 0.54 0.57 0.58 0.63 0.63 0.62 0.58 0.54 0.54 0.50 0.46 0.46 0.47 0.47 0.47 0.47 0.48 0.48 0.46 0.49 0.54 0.60 0.71 0.87 0.99 1.15 1.11 1.21 1.26 1.28 1.25 1.24 1.30 1.35 1.25 1.20 1.14 1.05
0.39 0.41 0.42 0.43 0.44 0.47 0.51 0.54 0.52 0.53 0.54 0.52 0.50 0.50 0.50 0.49 0.46 0.47 0.48 0.49 0.47 0.45 0.43 0.46 0.48 0.49 0.56 0.66 0.70 0.85 0.90 1.03 1.10 1.21 1.35 1.26 1.25 1.28 1.27 1.25 1.26 1.22 1.11
0.38 0.39 0.40 0.40 0.41 0.42 0.45 0.48 0.50 0.50 0.48 0.48 0.48 0.47 0.47 0.46 0.45 0.47 0.47 0.46 0.45 0.43 0.43 0.45 0.48 0.49 0.54 0.58 0.66 0.72 0.82 0.89 1.00 1.10 1.19 1.26 1.28 1.26 1.24 1.23 1.23 1.20 1.23
0.37 0.38 0.38 0.38 0.39 0.41 0.42 0.44 0.47 0.48 0.49 0.49 0.48 0.49 0.47 0.46 0.48 0.47 0.46 0.44 0.45 0.43 0.42 0.44 0.47 0.47 0.51 0.56 0.59 0.68 0.79 0.89 0.98 1.06 1.12 1.18 1.30 1.31 1.25 1.19 1.14 1.13 1.15
0.36 0.36 0.37 0.37 0.36 0.36 0.38 0.39 0.40 0.41 0.42 0.42 0.45 0.46 0.46 0.44 0.42 0.42 0.44 0.45 0.47 0.44 0.43 0.45 0.47 0.46 0.46 0.51 0.55 0.57 0.68 0.77 0.87 0.96 1.16 1.13 1.13 1.19 1.28 1.20 1.10 1.09 1.11
0.35 0.34 0.35 0.35 0.34 0.34 0.35 0.35 0.35 0.35 0.35 0.36 0.37 0.37 0.38 0.41 0.42 0.41 0.41 0.43 0.42 0.41 0.42 0.42 0.44 0.45 0.45 0.46 0.48 0.55 0.58 0.64 0.78 0.90 0.95 1.05 1.13 1.24 1.26 1.21 1.13 1.02 1.04
0.33 0.35 0.34 0.33 0.33 0.33 0.33 0.32 0.32 0.31 0.33 0.34 0.35 0.35 0.34 0.33 0.33 0.34 0.35 0.37 0.38 0.38 0.38 0.39 0.41 0.42 0.42 0.42 0.45 0.48 0.53 0.57 0.61 0.78 0.88 0.99 1.00 1.09 1.14 1.17 1.15 1.08 1.07
0.30 0.31 0.30 0.31 0.32 0.33 0.32 0.30 0.30 0.33 0.33 0.33 0.32 0.31 0.32 0.31 0.31 0.31 0.32 0.33 0.33 0.33 0.34 0.35 0.36 0.39 0.42 0.42 0.42 0.45 0.48 0.54 0.58 0.72 0.87 0.86 0.97 1.00 1.08 1.10 1.15 1.13 1.07
0.29 0.30 0.29 0.28 0.29 0.30 0.30 0.29 0.31 0.32 0.32 0.32 0.31 0.31 0.31 0.31 0.30 0.30 0.29 0.29 0.31 0.30 0.30 0.31 0.32 0.34 0.37 0.40 0.42 0.42 0.46 0.49 0.54 0.64 0.83 0.89 0.89 0.94 1.01 1.09 1.12 1.07 1.02
0.26 0.27 0.26 0.26 0.26 0.27 0.27 0.28 0.29 0.31 0.31 0.29 0.29 0.30 0.30 0.30 0.30 0.30 0.29 0.29 0.29 0.30 0.30 0.29 0.30 0.33 0.36 0.39 0.40 0.42 0.43 0.47 0.52 0.57 0.75 0.90 0.94 0.97 1.01 1.01 1.04 1.00 0.99
0.24 0.25 0.24 0.24 0.24 0.25 0.26 0.27 0.27 0.28 0.27 0.28 0.29 0.29 0.29 0.30 0.31 0.31 0.30 0.31 0.33 0.33 0.30 0.32 0.32 0.33 0.35 0.39 0.42 0.41 0.42 0.43 0.46 0.52 0.61 0.75 0.78 0.84 0.90 0.91 0.93 0.95 0.93
0.23 0.23 0.23 0.23 0.23 0.24 0.25 0.26 0.27 0.27 0.26 0.26 0.26 0.28 0.29 0.29 0.30 0.31 0.32 0.33 0.34 0.36 0.37 0.37 0.36 0.39 0.42 0.44 0.44 0.44 0.44 0.43 0.45 0.47 0.49 0.65 0.71 0.78 0.80 0.82 0.86 0.88 0.85

GFSMW_prec_pwat_144.txt.gz
Precipitable_Water
0.33 0.35 0.38 0.42 0.46 0.49 0.49 0.50 0.53 0.56 0.62 0.71 0.91 0.97 0.93 1.04 1.19 1.20 1.26 1.27 1.31 1.37 1.35 1.31 1.33 1.35 1.30 1.33 1.34 1.30 1.21 1.20 1.21 1.14 1.13 1.20 1.27 1.31 1.30 1.27 1.19 1.26 1.39
0.28 0.30 0.33 0.37 0.42 0.45 0.48 0.48 0.48 0.50 0.54 0.57 0.69 0.86 0.94 0.97 1.02 1.11 1.16 1.21 1.28 1.36 1.43 1.41 1.37 1.37 1.36 1.38 1.35 1.33 1.24 1.24 1.26 1.06 1.06 0.92 1.10 1.24 1.26 1.27 1.21 1.15 1.25
0.29 0.30 0.32 0.36 0.40 0.41 0.45 0.47 0.48 0.45 0.48 0.55 0.57 0.76 0.93 0.96 0.97 1.00 1.07 1.12 1.18 1.36 1.49 1.41 1.38 1.40 1.51 1.43 1.41 1.37 1.33 1.20 1.26 1.28 1.04 0.87 0.86 1.05 1.17 1.19 1.23 1.14 1.12
0.36 0.39 0.40 0.36 0.40 0.46 0.47 0.48 0.50 0.47 0.48 0.55 0.57 0.58 0.76 0.75 0.86 0.94 1.01 1.08 1.18 1.27 1.49 1.44 1.42 1.41 1.27 1.58 1.46 1.43 1.35 1.33 1.20 1.27 1.24 1.17 1.06 0.93 0.95 1.13 1.17 1.20 1.03
0.43 0.43 0.43 0.44 0.45 0.47 0.51 0.60 0.57 0.57 0.56 0.58 0.62 0.59 0.71 0.82 0.94 0.98 0.98 1.05 1.16 1.30 1.50 1.49 1.42 1.29 1.27 1.28 1.46 1.46 1.36 1.38 1.31 1.18 1.15 1.16 1.21 1.17 1.04 0.91 1.00 1.13 1.05
0.48 0.49 0.50 0.50 0.47 0.52 0.54 0.56 0.69 0.72 0.69 0.71 0.75 0.71 0.75 0.91 0.99 1.01 0.99 1.09 1.28 1.42 1.53 1.55 1.48 1.40 1.23 1.16 1.17 1.25 1.37 1.35 1.37 1.29 1.25 1.18 1.15 1.08 1.10 1.01 1.05 1.03 1.03
0.50 0.50 0.49 0.49 0.50 0.52 0.55 0.56 0.60 0.65 0.71 0.78 0.85 0.90 0.99 1.09 1.11 1.11 1.17 1.28 1.32 1.34 1.37 1.32 1.44 1.48 1.22 1.00 1.00 1.12 1.25 1.29 1.39 1.31 1.21 1.25 1.18 1.19 1.20 1.16 1.13 1.09 1.11
0.50 0.51 0.51 0.51 0.52 0.53 0.59 0.59 0.58 0.65 0.71 0.79 0.86 0.95 1.06 1.14 1.18 1.19 1.20 1.18 1.16 1.19 1.09 1.07 1.10 1.38 1.36 1.31 1.24 1.21 1.25 1.26 1.38 1.31 1.27 1.16 1.19 1.24 1.26 1.20 1.18 1.09 1.07
0.48 0.50 0.52 0.53 0.53 0.59 0.62 0.62 0.65 0.66 0.72 0.75 0.78 0.91 1.01 1.14 1.17 1.14 1.19 1.19 1.17 1.16 1.17 1.20 1.28 1.33 1.28 1.34 1.30 1.21 1.21 1.24 1.32 1.26 1.23 1.19 1.22 1.25 1.28 1.30 1.32 1.15 1.03
0.47 0.49 0.53 0.54 0.56 0.57 0.62 0.64 0.66 0.69 0.74 0.84 0.82 0.87 0.94 1.02 1.05 1.04 0.95 1.00 1.05 1.09 1.13 1.11 1.10 1.14 1.21 1.19 1.23 1.24 1.19 1.21 1.27 1.26 1.22 1.24 1.24 1.25 1.24 1.27 1.35 1.31 1.20
0.45 0.47 0.52 0.57 0.58 0.59 0.59 0.62 0.67 0.69 0.68 0.80 0.81 0.81 0.84 0.85 0.88 0.89 0.90 0.86 0.87 0.90 0.89 0.92 0.99 0.96 0.97 1.08 1.08 1.15 1.18 1.18 1.26 1.32 1.28 1.27 1.34 1.27 1.22 1.25 1.31 1.31 1.27
0.43 0.45 0.48 0.51 0.56 0.57 0.59 0.61 0.62 0.65 0.66 0.71 0.76 0.74 0.71 0.71 0.72 0.77 0.79 0.79 0.76 0.76 0.79 0.80 0.72 0.75 0.86 0.91 0.99 1.04 1.10 1.07 1.14 1.27 1.34 1.31 1.36 1.36 1.29 1.23 1.25 1.28 1.28
0.38 0.41 0.43 0.45 0.50 0.54 0.57 0.58 0.61 0.63 0.62 0.70 0.75 0.80 0.80 0.71 0.71 0.71 0.71 0.68 0.63 0.61 0.63 0.57 0.59 0.60 0.68 0.79 0.86 0.91 0.98 1.05 1.15 1.23 1.25 1.28 1.33 1.34 1.34 1.26 1.22 1.30 1.31
0.36 0.38 0.41 0.42 0.44 0.49 0.54 0.57 0.59 0.62 0.62 0.61 0.67 0.67 0.70 0.71 0.71 0.71 0.69 0.67 0.60 0.51 0.50 0.50 0.51 0.55 0.57 0.63 0.73 0.79 0.84 0.92 1.05 1.15 1.22 1.26 1.29 1.24 1.26 1.22 1.20 1.27 1.30
0.35 0.36 0.39 0.39 0.40 0.43 0.49 0.55 0.58 0.60 0.63 0.59 0.60 0.60 0.63 0.64 0.65 0.63 0.60 0.61 0.51 0.49 0.49 0.48 0.47 0.47 0.49 0.56 0.58 0.62 0.70 0.79 0.93 1.04 1.20 1.29 1.37 1.34 1.30 1.21 1.19 1.24 1.24
0.34 0.35 0.37 0.38 0.38 0.40 0.44 0.49 0.54 0.56 0.56 0.56 0.48 0.51 0.53 0.52 0.52 0.54 0.55 0.50 0.48 0.48 0.49 0.47 0.47 0.47 0.46 0.49 0.52 0.53 0.56 0.63 0.76 0.88 1.15 1.23 1.28 1.30 1.36 1.30 1.27 1.28 1.25
0.34 0.34 0.36 0.37 0.38 0.38 0.40 0.43 0.48 0.54 0.54 0.52 0.50 0.48 0.47 0.45 0.46 0.48 0.49 0.47 0.46 0.48 0.47 0.46 0.46 0.43 0.44 0.48 0.49 0.50 0.52 0.57 0.65 0.80 0.97 1.07 1.16 1.30 1.22 1.37 1.30 1.26 1.38
0.33 0.34 0.35 0.36 0.37 0.37 0.38 0.40 0.42 0.44 0.48 0.50 0.50 0.52 0.50 0.49 0.50 0.49 0.47 0.46 0.48 0.49 0.51 0.49 0.45 0.43 0.45 0.48 0.49 0.49 0.51 0.54 0.60 0.70 0.82 0.92 0.98 1.10 1.15 1.24 1.25 1.24 1.27
0.34 0.35 0.35 0.35 0.35 0.35 0.36 0.37 0.38 0.40 0.40 0.41 0.43 0.44 0.48 0.50 0.51 0.51 0.49 0.47 0.46 0.49 0.48 0.51 0.47 0.44 0.44 0.47 0.47 0.48 0.48 0.50 0.53 0.60 0.74 0.85 0.93 1.02 1.25 1.22 1.26 1.27 1.21
0.33 0.32 0.32 0.33 0.33 0.34 0.35 0.34 0.34 0.35 0.35 0.36 0.37 0.38 0.39 0.38 0.38 0.41 0.47 0.47 0.45 0.42 0.43 0.44 0.46 0.46 0.44 0.46 0.47 0.46 0.45 0.43 0.46 0.53 0.60 0.79 0.90 0.94 1.06 1.08 1.07 1.04 1.13
0.31 0.31 0.31 0.29 0.29 0.31 0.31 0.31 0.31 0.31 0.33 0.34 0.35 0.34 0.35 0.34 0.34 0.34 0.35 0.38 0.40 0.40 0.41 0.41 0.42 0.42 0.42 0.43 0.43 0.44 0.42 0.41 0.41 0.43 0.49 0.60 0.73 0.88 0.99 1.17 1.13 1.03 1.07
0.29 0.29 0.28 0.28 0.29 0.29 0.29 0.27 0.27 0.30 0.32 0.32 0.32 0.31 0.32 0.32 0.32 0.32 0.32 0.32 0.32 0.32 0.32 0.35 0.38 0.39 0.40 0.41 0.41 0.42 0.43 0.41 0.38 0.40 0.45 0.51 0.61 0.73 0.88 0.96 1.07 1.19 1.16
0.25 0.26 0.26 0.25 0.26 0.27 0.27 0.25 0.27 0.28 0.28 0.29 0.29 0.30 0.31 0.31 0.32 0.31 0.30 0.30 0.30 0.29 0.28 0.28 0.29 0.31 0.35 0.38 0.40 0.42 0.42 0.42 0.41 0.42 0.45 0.48 0.55 0.69 0.84 0.97 1.02 1.02 1.05
0.23 0.23 0.23 0.23 0.23 0.25 0.25 0.26 0.26 0.27 0.26 0.26 0.26 0.27 0.27 0.28 0.29 0.29 0.29 0.28 0.28 0.27 0.28 0.27 0.26 0.28 0.31 0.33 0.37 0.38 0.40 0.42 0.41 0.41 0.41 0.44 0.48 0.55 0.68 0.87 0.88 0.89 1.03
0.23 0.23 0.23 0.22 0.22 0.23 0.23 0.25 0.25 0.26 0.25 0.25 0.26 0.26 0.26 0.26 0.27 0.29 0.28 0.28 0.29 0.28 0.27 0.27 0.28 0.27 0.28 0.31 0.35 0.38 0.38 0.39 0.40 0.40 0.40 0.39 0.41 0.46 0.55 0.72 0.81 0.83 0.94
0.22 0.22 0.22 0.22 0.22 0.22 0.23 0.24 0.25 0.25 0.24 0.24 0.25 0.25 0.25 0.26 0.25 0.25 0.27 0.30 0.30 0.30 0.31 0.31 0.30 0.30 0.31 0.32 0.34 0.36 0.39 0.39 0.39 0.39 0.37 0.37 0.38 0.41 0.49 0.59 0.80 0.85 0.88

GFSMW_prec_pwat_147.txt.gz
Precipitable_Water
0.39 0.42 0.45 0.53 0.55 0.55 0.60 0.67 0.66 0.69 0.70 0.69 0.72 1.01 1.08 1.17 1.32 1.40 1.38 1.41 1.48 1.49 1.38 1.36 1.36 1.39 1.37 1.29 1.27 1.29 1.26 1.27 1.32 1.20 1.19 1.23 1.24 1.25 1.24 1.30 1.33 1.24 1.23
0.37 0.41 0.49 0.45 0.43 0.41 0.46 0.49 0.61 0.71 0.68 0.69 0.67 0.70 0.84 1.06 1.12 1.23 1.29 1.40 1.46 1.48 1.39 1.33 1.33 1.35 1.34 1.35 1.32 1.29 1.25 1.30 1.37 1.17 1.17 1.01 1.10 1.16 1.24 1.28 1.33 1.29 1.27
0.44 0.44 0.43 0.42 0.43 0.40 0.40 0.42 0.48 0.58 0.75 0.71 0.68 0.67 0.71 0.83 0.97 1.07 1.13 1.22 1.30 1.32 1.33 1.32 1.34 1.31 1.43 1.38 1.40 1.36 1.29 1.25 1.39 1.38 1.21 1.01 0.88 1.02 1.17 1.21 1.31 1.30 1.26
0.40 0.41 0.42 0.42 0.44 0.44 0.46 0.46 0.47 0.50 0.61 0.79 0.76 0.65 0.66 0.63 0.81 0.94 1.01 1.07 1.22 1.24 1.29 1.29 1.32 1.31 1.39 1.47 1.45 1.38 1.36 1.38 1.23 1.44 1.47 1.35 1.22 1.01 0.94 1.15 1.22 1.27 1.26
0.40 0.40 0.43 0.44 0.45 0.47 0.47 0.48 0.50 0.55 0.57 0.58 0.73 0.80 0.81 0.69 0.63 0.88 0.97 1.07 1.10 1.17 1.24 1.30 1.30 1.35 1.40 1.48 1.46 1.41 1.31 1.29 1.14 1.33 1.35 1.37 1.32 1.30 1.07 0.98 1.11 1.26 1.27
0.41 0.43 0.46 0.47 0.46 0.47 0.46 0.47 0.48 0.52 0.60 0.62 0.59 0.62 0.67 0.83 0.75 0.73 0.78 1.03 1.03 1.06 1.17 1.20 1.26 1.34 1.39 1.48 1.50 1.41 1.29 1.22 1.11 1.25 1.31 1.31 1.24 1.18 1.11 1.02 1.11 1.12 1.21
0.41 0.42 0.43 0.45 0.47 0.45 0.46 0.46 0.46 0.49 0.57 0.62 0.64 0.60 0.61 0.68 0.85 0.81 0.88 0.96 1.01 1.05 1.05 1.17 1.22 1.33 1.43 1.51 1.50 1.54 1.26 1.21 1.12 1.22 1.22 1.32 1.30 1.34 1.26 1.21 1.09 1.13 1.23
0.42 0.42 0.44 0.47 0.48 0.49 0.49 0.48 0.48 0.54 0.57 0.61 0.62 0.69 0.68 0.72 0.86 0.98 1.03 1.06 1.17 1.17 1.19 1.26 1.28 1.40 1.58 1.40 1.31 1.16 1.21 1.21 1.18 1.12 1.29 1.28 1.28 1.39 1.27 1.30 1.17 1.07 1.19
0.38 0.41 0.42 0.44 0.46 0.48 0.50 0.50 0.50 0.54 0.59 0.62 0.63 0.69 0.73 0.79 0.84 1.04 1.14 1.20 1.23 1.29 1.32 1.33 1.32 1.35 1.28 1.29 1.21 1.13 1.13 1.19 1.25 1.12 1.19 1.23 1.23 1.33 1.32 1.25 1.24 1.11 1.10
0.37 0.38 0.40 0.41 0.43 0.48 0.50 0.53 0.53 0.52 0.57 0.66 0.65 0.74 0.79 0.86 0.89 0.91 1.03 1.12 1.15 1.22 1.27 1.21 1.22 1.21 1.19 1.17 1.16 1.16 1.12 1.17 1.20 1.22 1.27 1.24 1.24 1.30 1.36 1.28 1.22 1.19 1.21
0.36 0.37 0.38 0.41 0.41 0.45 0.48 0.53 0.55 0.56 0.57 0.67 0.67 0.69 0.74 0.80 0.91 0.87 0.96 1.02 1.06 1.12 1.14 1.19 1.20 1.20 1.20 1.16 1.11 1.12 1.20 1.17 1.22 1.29 1.24 1.21 1.32 1.30 1.30 1.31 1.26 1.23 1.15
0.37 0.38 0.38 0.40 0.40 0.40 0.45 0.51 0.56 0.57 0.61 0.64 0.70 0.69 0.71 0.79 0.83 0.86 0.91 0.97 0.97 1.00 1.02 1.04 0.99 0.97 0.96 0.99 1.05 1.01 1.10 1.05 1.05 1.11 1.21 1.25 1.33 1.35 1.32 1.31 1.27 1.25 1.22
0.35 0.36 0.36 0.38 0.40 0.40 0.43 0.49 0.55 0.57 0.58 0.62 0.66 0.66 0.69 0.75 0.78 0.79 0.83 0.84 0.85 0.87 0.86 0.87 0.86 0.83 0.86 0.88 0.89 0.90 0.91 0.91 1.02 1.06 1.12 1.09 1.22 1.31 1.37 1.36 1.32 1.35 1.31
0.33 0.33 0.34 0.36 0.40 0.41 0.41 0.46 0.52 0.57 0.57 0.59 0.63 0.63 0.67 0.75 0.77 0.76 0.73 0.72 0.74 0.71 0.70 0.69 0.69 0.72 0.67 0.64 0.66 0.65 0.70 0.80 0.85 0.92 1.01 1.09 1.15 1.21 1.29 1.37 1.32 1.34 1.35
0.32 0.32 0.33 0.34 0.37 0.38 0.40 0.43 0.50 0.55 0.57 0.57 0.58 0.61 0.63 0.69 0.73 0.75 0.79 0.79 0.71 0.67 0.65 0.60 0.57 0.57 0.53 0.54 0.52 0.55 0.57 0.61 0.68 0.79 0.88 0.99 1.10 1.20 1.19 1.26 1.27 1.29 1.24
0.32 0.32 0.33 0.34 0.36 0.37 0.39 0.39 0.45 0.50 0.55 0.56 0.55 0.55 0.58 0.58 0.56 0.60 0.64 0.69 0.64 0.62 0.62 0.59 0.54 0.51 0.52 0.50 0.50 0.48 0.46 0.48 0.51 0.56 0.66 0.82 0.98 1.03 1.16 1.21 1.33 1.36 1.26
0.32 0.32 0.33 0.34 0.36 0.37 0.37 0.37 0.41 0.46 0.48 0.52 0.54 0.52 0.50 0.50 0.49 0.50 0.52 0.55 0.56 0.55 0.53 0.50 0.50 0.50 0.52 0.51 0.51 0.48 0.44 0.44 0.49 0.53 0.58 0.65 0.78 0.93 1.08 1.13 1.22 1.30 1.29
0.32 0.31 0.32 0.33 0.35 0.36 0.36 0.37 0.39 0.40 0.42 0.44 0.48 0.51 0.50 0.49 0.49 0.49 0.49 0.46 0.47 0.52 0.52 0.49 0.48 0.47 0.49 0.49 0.47 0.44 0.45 0.45 0.48 0.51 0.56 0.60 0.64 0.73 0.87 0.96 1.08 1.20 1.25
0.33 0.32 0.32 0.32 0.32 0.32 0.33 0.34 0.35 0.36 0.37 0.38 0.40 0.42 0.44 0.46 0.49 0.52 0.52 0.51 0.53 0.53 0.49 0.50 0.51 0.50 0.50 0.52 0.48 0.43 0.44 0.43 0.44 0.47 0.48 0.52 0.55 0.63 0.74 0.76 0.83 0.94 1.11
0.34 0.31 0.30 0.31 0.30 0.31 0.31 0.31 0.31 0.32 0.32 0.35 0.37 0.38 0.39 0.40 0.39 0.40 0.41 0.43 0.46 0.53 0.56 0.52 0.52 0.52 0.53 0.54 0.52 0.45 0.42 0.39 0.40 0.44 0.45 0.46 0.52 0.53 0.63 0.72 0.76 0.80 0.89
0.31 0.30 0.28 0.27 0.28 0.29 0.29 0.28 0.28 0.28 0.30 0.32 0.33 0.35 0.36 0.36 0.36 0.38 0.38 0.38 0.38 0.39 0.43 0.45 0.46 0.47 0.46 0.46 0.47 0.46 0.43 0.40 0.37 0.38 0.39 0.43 0.45 0.47 0.53 0.61 0.73 0.80 0.91
0.27 0.26 0.25 0.25 0.26 0.27 0.26 0.25 0.25 0.28 0.29 0.30 0.30 0.31 0.32 0.32 0.33 0.33 0.34 0.34 0.34 0.33 0.33 0.34 0.37 0.40 0.40 0.42 0.42 0.43 0.43 0.42 0.39 0.38 0.40 0.41 0.40 0.42 0.47 0.53 0.60 0.73 0.84
0.24 0.24 0.23 0.23 0.24 0.25 0.24 0.23 0.25 0.26 0.27 0.27 0.27 0.28 0.29 0.29 0.30 0.29 0.29 0.29 0.29 0.29 0.29 0.29 0.29 0.29 0.31 0.34 0.37 0.37 0.38 0.40 0.38 0.40 0.40 0.40 0.40 0.41 0.42 0.47 0.53 0.64 0.76
0.23 0.23 0.22 0.22 0.22 0.24 0.24 0.24 0.25 0.26 0.25 0.25 0.26 0.27 0.26 0.27 0.28 0.28 0.28 0.27 0.26 0.26 0.25 0.25 0.25 0.27 0.28 0.29 0.29 0.31 0.34 0.36 0.37 0.38 0.39 0.40 0.41 0.41 0.40 0.42 0.48 0.56 0.66
0.22 0.22 0.21 0.22 0.21 0.22 0.23 0.24 0.25 0.25 0.24 0.25 0.26 0.26 0.26 0.26 0.26 0.27 0.27 0.27 0.27 0.26 0.24 0.25 0.25 0.24 0.24 0.26 0.28 0.28 0.29 0.31 0.33 0.33 0.36 0.37 0.38 0.37 0.38 0.38 0.41 0.47 0.53
0.22 0.22 0.22 0.21 0.21 0.21 0.22 0.23 0.25 0.26 0.25 0.24 0.25 0.25 0.25 0.25 0.26 0.26 0.26 0.29 0.28 0.27 0.27 0.27 0.26 0.26 0.26 0.27 0.28 0.29 0.29 0.30 0.31 0.32 0.33 0.34 0.36 0.36 0.37 0.37 0.38 0.42 0.46

GFSMW_prec_pwat_150.txt.gz
Precipitable_Water
0.49 0.53 0.54 0.53 0.49 0.47 0.44 0.44 0.45 0.50 0.65 0.73 0.81 0.85 0.75 0.97 1.31 1.50 1.44 1.48 1.45 1.48 1.35 1.31 1.34 1.35 1.33 1.34 1.28 1.24 1.21 1.19 1.20 1.13 1.16 1.29 1.33 1.30 1.29 1.28 1.26 1.20 1.28
0.44 0.44 0.45 0.45 0.45 0.44 0.43 0.42 0.42 0.45 0.48 0.58 0.69 0.82 0.87 0.78 0.90 1.23 1.33 1.38 1.55 1.52 1.56 1.42 1.41 1.44 1.44 1.37 1.34 1.30 1.24 1.26 1.32 1.05 1.05 0.98 1.14 1.26 1.30 1.27 1.26 1.21 1.24
0.39 0.38 0.40 0.41 0.44 0.43 0.43 0.43 0.43 0.44 0.46 0.50 0.54 0.67 0.77 0.84 0.81 0.78 1.18 1.35 1.36 1.38 1.49 1.60 1.53 1.53 1.53 1.42 1.40 1.31 1.29 1.20 1.32 1.29 1.08 0.95 0.90 1.09 1.27 1.26 1.26 1.24 1.24
0.41 0.39 0.38 0.38 0.42 0.44 0.46 0.45 0.46 0.45 0.46 0.47 0.49 0.53 0.61 0.63 0.76 0.93 0.99 0.94 1.31 1.32 1.31 1.37 1.48 1.39 1.42 1.40 1.37 1.34 1.31 1.30 1.23 1.38 1.29 1.19 1.13 0.99 1.00 1.27 1.28 1.30 1.24
0.38 0.36 0.36 0.39 0.42 0.45 0.45 0.46 0.44 0.45 0.47 0.49 0.51 0.50 0.53 0.61 0.70 0.78 0.91 1.01 1.13 1.14 1.24 1.24 1.32 1.34 1.41 1.37 1.35 1.33 1.33 1.38 1.30 1.32 1.43 1.30 1.23 1.24 1.04 1.06 1.17 1.33 1.30
0.34 0.36 0.39 0.41 0.41 0.44 0.44 0.44 0.44 0.43 0.45 0.48 0.50 0.53 0.52 0.55 0.57 0.66 0.76 0.92 0.99 1.24 1.21 1.19 1.20 1.27 1.33 1.34 1.38 1.41 1.40 1.39 1.40 1.35 1.36 1.23 1.13 1.04 1.14 1.07 1.12 1.13 1.25
0.34 0.33 0.34 0.34 0.37 0.38 0.40 0.42 0.44 0.43 0.44 0.46 0.48 0.55 0.57 0.59 0.59 0.60 0.66 0.78 0.93 1.01 1.10 1.10 1.11 1.16 1.19 1.27 1.37 1.41 1.45 1.44 1.43 1.37 1.30 1.21 1.18 1.18 1.17 1.13 1.12 1.12 1.27
0.34 0.34 0.36 0.36 0.36 0.35 0.36 0.39 0.41 0.43 0.47 0.46 0.48 0.52 0.59 0.64 0.63 0.64 0.69 0.74 0.91 1.00 1.09 1.20 1.26 1.20 1.23 1.29 1.33 1.39 1.42 1.45 1.38 1.31 1.26 1.29 1.20 1.13 1.16 1.13 1.11 1.06 1.21
0.35 0.35 0.36 0.37 0.37 0.36 0.35 0.36 0.40 0.44 0.47 0.48 0.49 0.54 0.57 0.64 0.67 0.71 0.75 0.74 0.79 0.94 1.06 1.05 1.08 1.16 1.28 1.28 1.26 1.26 1.24 1.26 1.26 1.27 1.27 1.32 1.21 1.12 1.21 1.17 1.11 1.09 1.02
0.35 0.34 0.36 0.36 0.38 0.37 0.35 0.37 0.39 0.44 0.49 0.50 0.51 0.54 0.57 0.64 0.70 0.75 0.71 0.78 0.76 0.83 0.99 1.03 1.13 1.22 1.30 1.37 1.32 1.21 1.18 1.09 1.12 1.15 1.20 1.27 1.28 1.08 1.14 1.17 1.13 1.14 1.15
0.32 0.33 0.35 0.37 0.38 0.36 0.35 0.36 0.40 0.44 0.50 0.52 0.53 0.56 0.60 0.63 0.69 0.73 0.79 0.74 0.84 0.86 0.99 1.10 1.20 1.25 1.29 1.23 1.18 1.12 1.15 1.07 1.04 1.07 1.16 1.23 1.20 1.15 1.20 1.16 1.10 1.11 1.22
0.33 0.35 0.36 0.36 0.34 0.35 0.36 0.38 0.40 0.44 0.52 0.55 0.55 0.57 0.62 0.64 0.69 0.69 0.72 0.79 0.82 0.90 0.93 1.04 1.12 1.15 1.23 1.29 1.28 1.22 1.23 1.15 1.17 1.20 1.20 1.10 1.24 1.23 1.24 1.25 1.23 1.25 1.23
0.33 0.34 0.34 0.34 0.34 0.35 0.37 0.39 0.41 0.44 0.54 0.56 0.56 0.57 0.60 0.63 0.66 0.69 0.70 0.75 0.79 0.86 0.97 0.97 1.04 1.04 1.07 1.13 1.09 1.09 1.08 1.07 1.10 1.05 1.00 0.98 1.11 1.11 1.21 1.25 1.25 1.22 1.29
0.31 0.32 0.31 0.32 0.33 0.35 0.37 0.39 0.41 0.44 0.50 0.56 0.55 0.55 0.58 0.61 0.65 0.67 0.70 0.75 0.80 0.80 0.83 0.93 0.93 0.95 0.97 0.94 0.91 0.89 0.87 0.89 0.89 0.87 0.85 0.95 1.02 1.12 1.13 1.09 1.17 1.23 1.24
0.31 0.31 0.31 0.33 0.33 0.34 0.36 0.38 0.40 0.43 0.47 0.51 0.54 0.54 0.55 0.59 0.61 0.65 0.70 0.73 0.75 0.76 0.78 0.75 0.79 0.82 0.80 0.78 0.74 0.72 0.61 0.54 0.58 0.68 0.77 0.84 0.94 0.99 0.99 1.07 1.11 1.12 1.21
0.30 0.31 0.31 0.32 0.31 0.33 0.35 0.38 0.38 0.41 0.44 0.46 0.49 0.55 0.55 0.53 0.57 0.60 0.64 0.68 0.73 0.74 0.71 0.70 0.69 0.67 0.63 0.60 0.57 0.49 0.46 0.47 0.49 0.51 0.57 0.64 0.71 0.76 0.83 0.89 1.00 1.12 1.09
0.31 0.32 0.31 0.31 0.31 0.32 0.33 0.35 0.36 0.40 0.41 0.42 0.45 0.47 0.52 0.54 0.51 0.52 0.52 0.55 0.59 0.66 0.68 0.69 0.63 0.58 0.60 0.55 0.52 0.48 0.49 0.49 0.50 0.50 0.49 0.51 0.56 0.60 0.62 0.70 0.82 0.91 1.01
0.31 0.32 0.31 0.31 0.31 0.32 0.32 0.34 0.34 0.35 0.36 0.37 0.41 0.43 0.45 0.48 0.51 0.53 0.53 0.54 0.54 0.53 0.56 0.57 0.57 0.55 0.54 0.49 0.46 0.46 0.47 0.49 0.48 0.46 0.45 0.46 0.47 0.50 0.51 0.53 0.59 0.71 0.84
0.33 0.32 0.32 0.30 0.30 0.30 0.31 0.31 0.31 0.32 0.31 0.32 0.34 0.39 0.41 0.42 0.44 0.44 0.46 0.49 0.51 0.51 0.54 0.56 0.56 0.55 0.49 0.48 0.46 0.48 0.48 0.46 0.44 0.44 0.45 0.46 0.44 0.46 0.47 0.46 0.45 0.55 0.68
0.31 0.30 0.29 0.28 0.28 0.28 0.29 0.28 0.27 0.28 0.27 0.29 0.31 0.33 0.35 0.37 0.38 0.40 0.41 0.42 0.43 0.44 0.46 0.47 0.54 0.58 0.55 0.54 0.50 0.48 0.47 0.46 0.45 0.44 0.42 0.44 0.44 0.43 0.42 0.42 0.44 0.43 0.55
0.29 0.28 0.26 0.25 0.25 0.27 0.27 0.25 0.25 0.25 0.26 0.28 0.29 0.30 0.31 0.32 0.33 0.34 0.37 0.37 0.37 0.38 0.38 0.38 0.41 0.46 0.50 0.53 0.53 0.51 0.47 0.42 0.42 0.41 0.40 0.42 0.43 0.41 0.42 0.44 0.43 0.45 0.51
0.28 0.26 0.23 0.23 0.25 0.26 0.25 0.23 0.24 0.26 0.26 0.27 0.27 0.28 0.29 0.29 0.30 0.30 0.31 0.32 0.32 0.32 0.32 0.32 0.34 0.35 0.38 0.41 0.43 0.41 0.41 0.40 0.40 0.41 0.42 0.41 0.39 0.40 0.41 0.42 0.44 0.46 0.46
0.26 0.25 0.23 0.22 0.23 0.24 0.24 0.22 0.24 0.25 0.26 0.26 0.26 0.28 0.28 0.28 0.29 0.28 0.28 0.28 0.28 0.27 0.26 0.27 0.28 0.28 0.31 0.33 0.35 0.35 0.36 0.36 0.36 0.37 0.39 0.37 0.37 0.37 0.40 0.42 0.44 0.44 0.42
0.25 0.24 0.22 0.21 0.21 0.23 0.22 0.23 0.24 0.24 0.24 0.25 0.26 0.27 0.27 0.27 0.28 0.28 0.28 0.27 0.26 0.24 0.24 0.24 0.23 0.25 0.26 0.27 0.29 0.29 0.30 0.30 0.31 0.32 0.33 0.36 0.37 0.38 0.38 0.39 0.40 0.40 0.42
0.25 0.24 0.22 0.21 0.21 0.22 0.22 0.23 0.23 0.23 0.23 0.24 0.25 0.26 0.27 0.27 0.27 0.27 0.27 0.27 0.28 0.27 0.25 0.25 0.24 0.23 0.21 0.23 0.25 0.27 0.27 0.27 0.28 0.30 0.30 0.33 0.36 0.35 0.35 0.36 0.37 0.39 0.39
0.25 0.24 0.22 0.22 0.22 0.22 0.22 0.22 0.23 0.22 0.23 0.21 0.23 0.25 0.26 0.26 0.27 0.26 0.26 0.29 0.29 0.29 0.29 0.29 0.27 0.26 0.24 0.24 0.25 0.25 0.25 0.27 0.28 0.28 0.28 0.28 0.30 0.31 0.32 0.33 0.34 0.37 0.37